Time,TemperatureF,DewpointF,PressureIn,WindDirection,WindDirectionDegrees,WindSpeedMPH,WindSpeedGustMPH,Humidity,HourlyPrecipIn,Conditions,Clouds,dailyrainin,SoftwareType,DateUTC
2013-01-13 15:23:00,28.0,10.0,30.22,NW,308,6.0,-999.0,46,-99.99,,,-99.99,,2013-01-13 21:23:00,
2013-01-13 15:33:00,28.0,10.0,30.23,NW,322,4.0,-999.0,46,-99.99,,,-99.99,,2013-01-13 21:33:00,
2013-01-13 15:43:00,28.0,10.0,30.23,NW,322,4.0,-999.0,46,-99.99,,,-99.99,,2013-01-13 21:43:00,
2013-01-13 15:52:00,28.0,10.0,30.23,North,360,4.0,-999.0,46,-99.99,,,-99.99,,2013-01-13 21:52:00,
2013-01-13 16:02:00,29.0,11.0,30.23,North,355,2.0,13.0,46,0.00,,,0.00,,2013-01-13 22:02:00,
2013-01-13 16:12:00,29.0,11.0,30.23,North,355,2.0,13.0,46,0.00,,,0.00,,2013-01-13 22:12:00,
2013-01-13 16:22:00,28.0,10.0,30.24,North,11,4.0,10.0,46,0.00,,,0.00,,2013-01-13 22:22:00,
2013-01-13 16:33:00,28.0,10.0,30.23,NNW,345,5.0,12.0,46,0.00,,,0.00,,2013-01-13 22:33:00,
2013-01-13 16:43:00,28.0,10.0,30.23,NNW,345,5.0,12.0,46,0.00,,,0.00,,2013-01-13 22:43:00,
2013-01-13 16:52:00,28.0,11.0,30.24,NNW,329,3.0,10.0,48,0.00,,,0.00,,2013-01-13 22:52:00,
2013-01-13 17:02:00,27.0,10.0,30.24,NNW,334,3.0,11.0,48,0.00,,,0.00,,2013-01-13 23:02:00,
2013-01-13 17:12:00,27.0,10.0,30.24,NNW,334,3.0,11.0,48,0.00,,,0.00,,2013-01-13 23:12:00,
2013-01-13 17:22:00,27.0,11.0,30.24,North,360,4.0,9.0,50,0.00,,,0.00,,2013-01-13 23:22:00,
2013-01-13 17:33:00,26.0,10.0,30.24,NNW,344,2.0,7.0,51,0.00,,,0.00,,2013-01-13 23:33:00,
2013-01-13 17:42:00,26.0,10.0,30.24,NNW,344,2.0,7.0,51,0.00,,,0.00,,2013-01-13 23:42:00,
2013-01-13 17:52:00,25.0,10.0,30.24,NNW,330,2.0,6.0,52,0.00,,,0.00,,2013-01-13 23:52:00,
2013-01-13 18:03:00,25.0,11.0,30.24,NNW,341,1.0,6.0,54,0.00,,,0.00,,2013-01-14 00:03:00,
2013-01-13 18:12:00,25.0,11.0,30.24,NNW,341,1.0,6.0,54,0.00,,,0.00,,2013-01-14 00:12:00,
2013-01-13 18:22:00,24.0,10.0,30.24,NNW,338,3.0,7.0,55,0.00,,,0.00,,2013-01-14 00:22:00,
2013-01-13 18:33:00,23.0,10.0,30.25,NNW,344,2.0,5.0,57,0.00,,,0.00,,2013-01-14 00:33:00,
2013-01-13 18:43:00,23.0,10.0,30.25,NNW,344,2.0,5.0,57,0.00,,,0.00,,2013-01-14 00:43:00,
2013-01-13 18:52:00,23.0,10.0,30.25,NNW,344,2.0,4.0,58,0.00,,,0.00,,2013-01-14 00:52:00,
2013-01-13 19:03:00,22.0,11.0,30.26,NNW,344,0.0,0.0,61,0.00,,,0.00,,2013-01-14 01:03:00,
2013-01-13 19:12:00,22.0,11.0,30.26,NNW,344,0.0,0.0,61,0.00,,,0.00,,2013-01-14 01:12:00,
2013-01-13 19:22:00,21.0,11.0,30.27,NNW,344,0.0,0.0,66,0.00,,,0.00,,2013-01-14 01:22:00,
2013-01-13 19:32:00,20.0,11.0,30.27,NNW,344,0.0,0.0,66,0.00,,,0.00,,2013-01-14 01:32:00,
2013-01-13 19:42:00,20.0,11.0,30.27,NNW,344,0.0,0.0,66,0.00,,,0.00,,2013-01-14 01:42:00,
2013-01-13 19:52:00,19.0,12.0,30.28,NNW,344,0.0,0.0,75,0.00,,,0.00,,2013-01-14 01:52:00,
2013-01-13 20:02:00,18.0,11.0,30.27,NNW,344,0.0,0.0,74,0.00,,,0.00,,2013-01-14 02:02:00,
2013-01-13 20:12:00,17.0,10.0,30.27,NNW,344,0.0,0.0,73,0.00,,,0.00,,2013-01-14 02:12:00,
2013-01-13 20:22:00,17.0,10.0,30.27,NNW,344,0.0,0.0,73,0.00,,,0.00,,2013-01-14 02:22:00,
2013-01-13 20:32:00,17.0,10.0,30.27,NNW,344,0.0,0.0,74,0.00,,,0.00,,2013-01-14 02:32:00,
2013-01-13 20:42:00,17.0,10.0,30.27,NNW,344,0.0,0.0,74,0.00,,,0.00,,2013-01-14 02:42:00,
2013-01-13 20:53:00,17.0,10.0,30.28,NNW,344,0.0,0.0,75,0.00,,,0.00,,2013-01-14 02:53:00,
2013-01-13 21:02:00,16.0,10.0,30.28,NNW,344,0.0,0.0,78,0.00,,,0.00,,2013-01-14 03:02:00,
2013-01-13 21:12:00,16.0,10.0,30.28,NNW,344,0.0,0.0,78,0.00,,,0.00,,2013-01-14 03:12:00,
2013-01-13 21:22:00,16.0,11.0,30.29,NNW,344,0.0,0.0,81,0.00,,,0.00,,2013-01-14 03:22:00,
2013-01-13 21:32:00,15.0,10.0,30.30,NNW,344,0.0,0.0,81,0.00,,,0.00,,2013-01-14 03:32:00,
2013-01-13 21:42:00,15.0,10.0,30.30,NNW,344,0.0,0.0,81,0.00,,,0.00,,2013-01-14 03:42:00,
2013-01-13 21:52:00,14.0,9.0,30.30,NNW,344,0.0,0.0,81,0.00,,,0.00,,2013-01-14 03:52:00,
2013-01-13 22:02:00,14.0,9.0,30.31,NNW,344,0.0,0.0,81,0.00,,,0.00,,2013-01-14 04:02:00,
2013-01-13 22:12:00,14.0,9.0,30.31,NNW,344,0.0,0.0,81,0.00,,,0.00,,2013-01-14 04:12:00,
2013-01-13 22:22:00,14.0,9.0,30.31,NNW,344,0.0,1.0,81,0.00,,,0.00,,2013-01-14 04:22:00,
2013-01-13 22:32:00,14.0,9.0,30.31,NNW,344,0.0,1.0,81,0.00,,,0.00,,2013-01-14 04:32:00,
2013-01-13 22:42:00,14.0,9.0,30.31,NNW,344,0.0,1.0,81,0.00,,,0.00,,2013-01-14 04:42:00,
2013-01-13 22:52:00,13.0,8.0,30.31,NNW,344,0.0,0.0,81,0.00,,,0.00,,2013-01-14 04:52:00,
2013-01-13 23:04:00,13.0,8.0,30.31,NNW,344,0.0,0.0,81,0.00,,,0.00,,2013-01-14 05:04:00,
2013-01-13 23:12:00,13.0,8.0,30.31,NNW,344,0.0,0.0,81,0.00,,,0.00,,2013-01-14 05:12:00,
2013-01-13 23:22:00,13.0,9.0,30.32,NNW,344,0.0,0.0,82,0.00,,,0.00,,2013-01-14 05:22:00,
2013-01-13 23:32:00,13.0,9.0,30.32,NNW,344,0.0,0.0,83,0.00,,,0.00,,2013-01-14 05:32:00,
2013-01-13 23:42:00,13.0,9.0,30.32,NNW,344,0.0,0.0,83,0.00,,,0.00,,2013-01-14 05:42:00,
2013-01-13 23:52:00,14.0,10.0,30.32,NNW,344,0.0,0.0,83,0.00,,,0.00,,2013-01-14 05:52:00,